Regional Weather Roundup
Issued by NWS

Home | Current Version | Previous Version | Graphics & Text | Print | Product List | Glossary On
Versions: 1 2 3 4 5 6 7 8 9 10 11 12 13 14 15 16 17 18 19 20 21 22 23 24 25 26 27 28 29 30 31 32 33 34 35 36 37 38 39 40 41 42 43 44 45 46 47 48 49 50
000
ASUS43 KDMX 042007
RWRIA

WEATHER ROUNDUP FOR IOWA
NATIONAL WEATHER SERVICE DES MOINES IA
200 PM CST WED MAR 04 2015

NOTE: "FAIR" INDICATES FEW OR NO CLOUDS BELOW 12,000 FEET WITH NO
SIGNIFICANT WEATHER AND/OR OBSTRUCTIONS TO VISIBILITY.

* - THESE STATIONS ARE NOT NWS STATIONS...THUS NOT UNDER NWS
QUALITY CONTROL.  THEY ALSO DO NOT REPORT WEATHER SUCH
AS PRECIPITATION OR FOG.

IAZ001>003-012>014-020>022-031>034-043>046-042100-
   NORTHWEST IOWA

CITY           SKY/WX    TMP DP  RH WIND       PRES   REMARKS
CARROLL *      MOSUNNY   25   7  46 NW26G35   30.24S WCI   9
CHEROKEE *     SUNNY     18   0  45 NW15G30   30.26S WCI   3
DENISON *      SUNNY     23   1  39 NW21G28   30.24S WCI   8
LE MARS *      SUNNY     19  -2  38 NW24G35   30.30S WCI   2
ORANGE CITY *  MOSUNNY   18   1  49 NW20G31   30.26R WCI   1
SHELDON *      PTSUNNY   14   0  52 NW22G31   30.25R WCI  -4
SIOUX CITY     SUNNY     23   0  36 NW24G39   30.28  WCI   7
SPENCER        PTSUNNY   17   2  51 NW20G32   30.24  WCI   1
STORM LAKE *   SUNNY     19  -2  38 NW23G35   30.23R WCI   2
$$

IAZ055>058-069>071-079>083-090>094-042100-
   SOUTHWEST IOWA

CITY           SKY/WX    TMP DP  RH WIND       PRES   REMARKS
ATLANTIC *     SUNNY     28   3  34 NW26      30.23F WCI  13
AUDUBON *      SUNNY     27   3  36 NW22G29   30.23F WCI  12
CLARINDA *     MOSUNNY   28   7  40 NW7       30.29F WCI  21
COUNCIL BLFS * SUNNY     28   1  31 NW18G26   30.24F WCI  16
CRESTON *      MOSUNNY   27   3  36 NW18      30.24S WCI  13
HARLAN  *      SUNNY     27   3  36 NW23G31   30.28F WCI  12
LAMONI         MOSUNNY   26   8  46 W10G21    30.27  WCI  16
RED OAK *      MOSUNNY   32   1  27 NW18      30.26S WCI  20
SHENANDOAH *   PTSUNNY   30   3  31 NW14      30.29S WCI  20
$$

IAZ047>049-059>061-072>074-084-042100-
   CENTRAL IOWA

CITY           SKY/WX    TMP DP  RH WIND       PRES   REMARKS
AMES           CLOUDY    24   8  50 NW17G23   30.22  WCI  11
ANKENY *       MOSUNNY   25   7  46 NW10G18   30.24F WCI  15
CHARITON *     MOSUNNY   27   5  39 NW15G23   30.26S WCI  15
DES MOINES     PTSUNNY   28   7  41 W20       30.24  WCI  15
GRINNELL*      SUNNY     21   7  53 W9        30.24F WCI  11
KNOXVILLE *    SUNNY     23   3  42 W16G24    30.24F WCI  10
MARSHALLTOWN   SUNNY     18   7  62 W13       30.23  WCI   5
PELLA *        MOSUNNY   25  10  54 N12       30.26F WCI  14
PERRY *          N/A     27  10  50 NW15G21   30.22F WCI  15
$$

IAZ004>006-015-016-023>025-035-036-042100-
   NORTH CENTRAL IOWA

CITY           SKY/WX    TMP DP  RH WIND       PRES   REMARKS
ALGONA *       MOSUNNY   16 N/A N/A N13G20    30.22S WCI   2
CLARION *      LGT SNOW  18  12  79 N9        30.22R WCI   6
ESTHERVILLE    CLOUDY    14   5  67 NW20      30.23  WCI  -3
FORT DODGE *   CLOUDY    23   7  50 NW13G22   30.22S WCI  11
MASON CITY     SUNNY     13   2  61 NW10      30.23  WCI   0
FOREST CITY *  SUNNY     14   1  57 NW10      30.22S WCI   1
IOWA FALLS *   CLOUDY    19   9  63 NW5       30.23F WCI  13
$$

IAZ007>011-017>019-026>030-037>042-050>054-066-042100-
   NORTHEAST IOWA

CITY           SKY/WX    TMP DP  RH WIND       PRES   REMARKS
CEDAR RAPIDS     N/A     15   5  64 NW15      30.25  WCI   0
CHARLES CITY * SUNNY     12   0  57 W12       30.24R WCI  -2
CLINTON *      SUNNY     18   3  53 NW15      30.26R WCI   3
DECORAH *      SUNNY     12  -6  44 W9G20     30.20R WCI   0
DUBUQUE        SUNNY     15  -2  46 NW13      30.20  WCI   1
MONTICELLO *   SUNNY     14   0  52 W16       30.24R WCI  -2
OELWEIN *      SUNNY     12   0  57 W10       30.25R WCI  -1
WATERLOO       SUNNY     14   2  58 NW13      30.25  WCI   0
$$

IAZ064-065-067-068-078-042100-
   EAST CENTRAL IOWA

CITY           SKY/WX    TMP DP  RH WIND       PRES   REMARKS
DAVENPORT      SUNNY     16   3  56 NW15      30.26  WCI   1
IOWA CITY      SUNNY     17   2  51 NW13      30.29  WCI   4
MT. PLEASANT * SUNNY     21   3  45 NW8       30.28S WCI  12
MUSCATINE *    SUNNY     19   5  53 NW13      30.29S WCI   7
QUAD CITIES    SUNNY     19   2  47 NW18G24   30.26  WCI   4
$$

IAZ062-063-075>077-085>089-095>099-042100-
   SOUTHEAST IOWA

CITY           SKY/WX    TMP DP  RH WIND       PRES   REMARKS
BURLINGTON     SUNNY     19   2  47 N12       30.27  WCI   7
FAIRFIELD *    SUNNY     21   1  42 N15       30.27F WCI   8
FORT MADISON * SUNNY     19   7  58 NW15      30.27S WCI   5
KEOKUK *       SUNNY     23   3  42 N9G18     30.27S WCI  13
OSKALOOSA *      N/A     23   7  50 NW10      30.26F WCI  12
CENTERVILLE *  SUNNY     25   1  36 NW10G16   30.27F WCI  15
OTTUMWA        SUNNY     23   5  46 N15       30.26  WCI  10
WASHINGTON *   SUNNY     19   7  58 NW14      30.28S WCI   6
$$

ABBREVIATIONS USED IN REMARKS
   TC - TEMPERATURES IN CELSIUS
  WCI - WIND CHILL INDEX
   HX - HEAT INDEX
  VSB - VISIBILITY
$$




USA.gov is the U.S. government's official web portal to all federal, state and local government web resources and services.